Regional Weather Roundup
Issued by NWS Green Bay, WI

Home | Current Version | Previous Version | Text Only | Print | Product List | Glossary On
Versions: 1 2 3 4 5 6 7 8 9 10 11 12 13 14 15 16 17 18 19 20 21 22 23 24 25 26 27 28 29 30 31 32 33 34 35 36 37 38 39 40 41 42 43 44 45 46 47 48 49 50
000
ASUS43 KGRB 201800
RWRGRB

NORTH-CENTRAL AND NORTHEAST WISCONSIN REGIONAL WEATHER ROUNDUP
NATIONAL WEATHER SERVICE GREEN BAY WI
100 PM CDT SUN MAY 20 2018

WIZ005-009-010>012-018-019-201900-
NORTH CENTRAL WISCONSIN

CITY           SKY/WX    TMP DP  RH WIND       PRES   REMARKS
IRONWOOD       FAIR      63  35  35 N5        30.26F
MANITOWISH WTR NOT AVBL
ARBOR VITAE    NOT AVBL
EAGLE RIVER    NOT AVBL
LAND O LAKES   NOT AVBL
RHINELANDER    FAIR      63  26  24 E6        30.25F
PHILLIPS       NOT AVBL
ANTIGO         NOT AVBL
TOMAHAWK       NOT AVBL
MERRILL        NOT AVBL
$$

WIZ013-073-201900-
NORTHEAST WISCONSIN

CITY           SKY/WX    TMP DP  RH WIND       PRES   REMARKS
IRON MOUNTAIN  FAIR      64  24  21 VRB7      30.23F
MARINETTE      NOT AVBL
$$

WIZ017-030-035>037-045-201900-
CENTRAL WISCONSIN

CITY           SKY/WX    TMP DP  RH WIND       PRES   REMARKS
MEDFORD        NOT AVBL
WAUSAU         FAIR      63  28  26 E6        30.22F
MOSINEE        MOSUNNY   63  30  29 NE9       30.24F
MARSHFIELD     FAIR      63  41  44 E10       30.22F
WISC RAPIDS    FAIR      64  41  42 MISG      30.23F
STEVENS POINT  NOT AVBL
WAUPACA        NOT AVBL
SHAWANO        NOT AVBL
CLINTONVILLE   NOT AVBL
WAUTOMA        CLOUDY    57  45  64 SE7       30.25S
$$

WIZ038-039-048-051-201900-
FOX VALLEY

CITY           SKY/WX    TMP DP  RH WIND       PRES   REMARKS
NWS GREEN BAY  FAIR      57  30  35 NE17      30.25F
APPLETON       PTSUNNY   55  37  50 VRB6      30.23F
OSHKOSH        FAIR      55  44  66 NE10      30.24F
FOND DU LAC    CLOUDY    53  45  74 NE10      30.24S
$$

WIZ022-050-052-201900-
EAST CENTRAL WISCONSIN

CITY           SKY/WX    TMP DP  RH WIND       PRES   REMARKS
EPHRAIM        NOT AVBL
WASHINGTON ISL NOT AVBL
STURGEON BAY   FAIR      52  35  52 NW6       30.27S
MANITOWOC      FAIR      53  41  63 N7        30.25F
SHEBOYGAN      PTSUNNY   51  43  74 NE10      30.24F
$$

LMZ563-521-522-541>543-201900-
LAKESHORE

STATION/POSITION TIME  TEMP    WIND        PRES    VSBY  WAVE
                       AIR SEA DIR/SP/G                  HT/PER
                 (UTC) (F)     (DEG/KT/KT) (MB)    (MI)  (FT/S)
SHEBOYGAN LKSHOR 1700   43      20/ 17/ 18 1025.0F
KEWAUNEE LKSHORE 1730   48      60/  5/ 11 1024.1F
NORTHPORT PIER   1740   46                 1024.7S
SISTER BAY LKSHO 1727   48     340/ 11/ 14   N/A
MENOMINEE LKSHOR 1730   48      50/  7/  8 1024.6F
$$




USA.gov is the U.S. government's official web portal to all federal, state and local government web resources and services.